When you browse on this site, cookies collect data to enhance your experience and personalize the content and advertising you see.
Visit our Privacy Policy to learn more. By continuing to use the site, you agree to this use of cookies and data.
  • In Spain
  • List of Countries
  • For 7 days
  • Water Temperature
  • Satellite Maps
  • Weather Map
  • Weather Widgets
  • user-avatar
    Login

    Hourly Weather Pernik

    Today, 20 November, Tuesday

    Time Temperature Precipitation Wind Pressure Humidity
    00:00 +2°C° 0 mm 1 mps 690 mmHg 76%
    01:00 +3°C° 0 mm 1 mps 690 mmHg 77%
    02:00 +2°C° 0 mm 2 mps 690 mmHg 78%
    03:00 +2°C° 0 mm 2 mps 690 mmHg 79%
    04:00 +3°C° 0 mm 2 mps 690 mmHg 81%
    05:00 +3°C° 0 mm 2 mps 690 mmHg 82%
    06:00 +3°C° 0.4 mm 2 mps 690 mmHg 84%
    07:00 +4°C° 0.4 mm 2 mps 690 mmHg 87%
    08:00 +4°C° 0.4 mm 2 mps 690 mmHg 89%
    09:00 +5°C° 0.4 mm 2 mps 691 mmHg 88%
    10:00 +6°C° 0.4 mm 2 mps 691 mmHg 87%
    11:00 +7°C° 0.4 mm 2 mps 691 mmHg 86%
    12:00 +7°C° 0.2 mm 2 mps 691 mmHg 85%
    13:00 +8°C° 0.2 mm 3 mps 691 mmHg 84%
    14:00 +9°C° 0.2 mm 3 mps 690 mmHg 84%
    15:00 +8°C° 0.4 mm 2 mps 690 mmHg 87%
    16:00 +7°C° 0.4 mm 2 mps 690 mmHg 90%
    17:00 +6°C° 0.4 mm 2 mps 689 mmHg 93%
    18:00 +6°C° 0.2 mm 2 mps 689 mmHg 93%
    19:00 +6°C° 0.2 mm 2 mps 689 mmHg 93%
    20:00 +6°C° 0.2 mm 2 mps 689 mmHg 94%
    21:00 +6°C° 0.1 mm 2 mps 689 mmHg 94%
    22:00 +6°C° 0.1 mm 2 mps 689 mmHg 94%
    23:00 +5°C° 0.1 mm 2 mps 689 mmHg 94%

    Tomorrow, 21 November, Wednesday

    Time Temperature Precipitation Wind Pressure Humidity
    00:00 +6°C° 0 mm 1 mps 688 mmHg 94%
    01:00 +6°C° 0 mm 1 mps 688 mmHg 94%
    02:00 +6°C° 0 mm 1 mps 688 mmHg 94%
    03:00 +6°C° 0.3 mm 1 mps 688 mmHg 95%
    04:00 +6°C° 0.3 mm 1 mps 687 mmHg 95%
    05:00 +6°C° 0.3 mm 1 mps 687 mmHg 95%
    06:00 +6°C° 1 mm 1 mps 687 mmHg 95%
    07:00 +6°C° 1 mm 1 mps 687 mmHg 95%
    08:00 +6°C° 1 mm 1 mps 687 mmHg 95%
    09:00 +6°C° 1.2 mm 1 mps 687 mmHg 94%
    10:00 +6°C° 1.2 mm 1 mps 688 mmHg 94%
    11:00 +6°C° 1.2 mm 1 mps 688 mmHg 93%
    12:00 +6°C° 1 mm 1 mps 688 mmHg 93%
    13:00 +5°C° 1 mm 2 mps 688 mmHg 92%
    14:00 +5°C° 1 mm 2 mps 688 mmHg 91%
    15:00 +5°C° 0.4 mm 2 mps 688 mmHg 92%
    16:00 +4°C° 0.4 mm 2 mps 688 mmHg 92%
    17:00 +4°C° 0.4 mm 2 mps 689 mmHg 92%
    18:00 +4°C° 0.2 mm 2 mps 689 mmHg 92%
    19:00 +4°C° 0.2 mm 1 mps 690 mmHg 92%
    20:00 +4°C° 0.2 mm 1 mps 690 mmHg 92%
    21:00 +4°C° 0.1 mm 1 mps 690 mmHg 92%
    22:00 +3°C° 0.1 mm 1 mps 691 mmHg 91%
    23:00 +3°C° 0.1 mm 1 mps 691 mmHg 91%

    Day after tomorrow, 22 November, Thursday

    Time Temperature Precipitation Wind Pressure Humidity
    00:00 +3°C° 0.1 mm 1 mps 691 mmHg 92%
    01:00 +3°C° 0.1 mm 1 mps 691 mmHg 92%
    02:00 +3°C° 0.1 mm 1 mps 691 mmHg 92%
    03:00 +2°C° 0.1 mm 1 mps 691 mmHg 92%
    04:00 +2°C° 0.1 mm 1 mps 691 mmHg 92%
    05:00 +2°C° 0.1 mm 1 mps 692 mmHg 92%
    06:00 +2°C° 0.1 mm 1 mps 692 mmHg 91%
    07:00 +2°C° 0.1 mm 1 mps 692 mmHg 91%
    08:00 +2°C° 0.1 mm 1 mps 692 mmHg 91%
    09:00 +3°C° 0 mm 1 mps 693 mmHg 86%
    10:00 +5°C° 0 mm 1 mps 693 mmHg 81%
    11:00 +6°C° 0 mm 1 mps 694 mmHg 77%
    12:00 +7°C° 0 mm 1 mps 693 mmHg 75%
    13:00 +7°C° 0 mm 1 mps 693 mmHg 74%
    14:00 +8°C° 0 mm 1 mps 693 mmHg 73%
    15:00 +7°C° 0 mm 1 mps 693 mmHg 77%
    16:00 +6°C° 0 mm 1 mps 693 mmHg 82%
    17:00 +5°C° 0 mm 1 mps 693 mmHg 87%
    18:00 +4°C° 0 mm 1 mps 694 mmHg 88%
    19:00 +4°C° 0 mm 1 mps 694 mmHg 90%
    20:00 +4°C° 0 mm 1 mps 694 mmHg 92%
    21:00 +3°C° 0 mm 1 mps 694 mmHg 92%
    22:00 +3°C° 0 mm 1 mps 694 mmHg 92%
    23:00 +3°C° 0 mm 1 mps 695 mmHg 92%

    23 November, Friday

    Time Temperature Precipitation Wind Pressure Humidity
    00:00 +3°C° 0 mm 1 mps 695 mmHg 93%
    01:00 +3°C° 0 mm 1 mps 695 mmHg 93%
    02:00 +3°C° 0 mm 1 mps 695 mmHg 93%
    03:00 +2°C° 0 mm 1 mps 695 mmHg 93%
    04:00 +2°C° 0 mm 1 mps 695 mmHg 93%
    05:00 +2°C° 0 mm 1 mps 695 mmHg 93%
    06:00 +2°C° 0 mm 1 mps 695 mmHg 92%
    07:00 +2°C° 0 mm 1 mps 696 mmHg 92%
    08:00 +2°C° 0 mm 1 mps 696 mmHg 92%
    09:00 +4°C° 0 mm 1 mps 697 mmHg 87%
    10:00 +6°C° 0 mm 1 mps 697 mmHg 81%
    11:00 +7°C° 0 mm 1 mps 697 mmHg 76%
    12:00 +8°C° 0 mm 1 mps 697 mmHg 74%
    13:00 +8°C° 0 mm 1 mps 697 mmHg 72%
    14:00 +9°C° 0 mm 1 mps 697 mmHg 71%
    15:00 +8°C° 0 mm 1 mps 697 mmHg 75%
    16:00 +7°C° 0 mm 1 mps 697 mmHg 80%
    17:00 +6°C° 0 mm 1 mps 697 mmHg 85%
    18:00 +5°C° 0 mm 1 mps 697 mmHg 87%
    19:00 +4°C° 0 mm 1 mps 697 mmHg 89%
    20:00 +4°C° 0 mm 1 mps 697 mmHg 91%
    21:00 +3°C° 0 mm 1 mps 697 mmHg 91%
    22:00 +3°C° 0 mm 1 mps 697 mmHg 92%
    23:00 +3°C° 0 mm 1 mps 697 mmHg 92%

    24 November, Saturday

    Time Temperature Precipitation Wind Pressure Humidity
    00:00 +2°C° 0 mm 1 mps 697 mmHg 92%
    01:00 +2°C° 0 mm 1 mps 697 mmHg 92%
    02:00 +2°C° 0 mm 1 mps 697 mmHg 92%
    03:00 +2°C° 0 mm 1 mps 697 mmHg 91%
    04:00 +2°C° 0 mm 1 mps 696 mmHg 91%
    05:00 +2°C° 0 mm 1 mps 696 mmHg 91%
    06:00 +2°C° 0 mm 1 mps 696 mmHg 90%
    07:00 +2°C° 0 mm 1 mps 696 mmHg 90%
    08:00 +2°C° 0 mm 1 mps 696 mmHg 89%
    09:00 +4°C° 0 mm 1 mps 696 mmHg 82%
    10:00 +6°C° 0 mm 1 mps 696 mmHg 75%
    11:00 +8°C° 0 mm 1 mps 696 mmHg 68%
    12:00 +9°C° 0 mm 1 mps 696 mmHg 65%
    13:00 +10°C° 0 mm 1 mps 696 mmHg 62%
    14:00 +10°C° 0 mm 1 mps 695 mmHg 58%
    15:00 +9°C° 0 mm 1 mps 695 mmHg 64%
    16:00 +8°C° 0 mm 1 mps 694 mmHg 69%
    17:00 +6°C° 0 mm 1 mps 694 mmHg 75%
    18:00 +6°C° 0 mm 1 mps 694 mmHg 76%
    19:00 +6°C° 0 mm 1 mps 694 mmHg 78%
    20:00 +5°C° 0 mm 1 mps 694 mmHg 79%
    21:00 +5°C° 0 mm 1 mps 694 mmHg 79%
    22:00 +5°C° 0 mm 1 mps 694 mmHg 80%
    23:00 +5°C° 0 mm 1 mps 694 mmHg 80%

    25 November, Sunday

    Time Temperature Precipitation Wind Pressure Humidity
    00:00 +5°C° 0 mm 1 mps 693 mmHg 81%
    01:00 +4°C° 0 mm 1 mps 693 mmHg 82%
    02:00 +4°C° 0 mm 1 mps 693 mmHg 82%
    03:00 +4°C° 0 mm 1 mps 693 mmHg 82%
    04:00 +4°C° 0 mm 1 mps 692 mmHg 82%
    05:00 +4°C° 0 mm 1 mps 692 mmHg 83%
    06:00 +4°C° 0 mm 1 mps 692 mmHg 82%
    07:00 +4°C° 0 mm 1 mps 692 mmHg 82%
    08:00 +4°C° 0 mm 1 mps 692 mmHg 82%
    09:00 +6°C° 0 mm 1 mps 692 mmHg 76%
    10:00 +8°C° 0 mm 1 mps 692 mmHg 69%
    11:00 +10°C° 0 mm 1 mps 692 mmHg 63%
    12:00 +11°C° 0 mm 1 mps 692 mmHg 60%
    13:00 +12°C° 0 mm 2 mps 691 mmHg 57%
    14:00 +13°C° 0 mm 2 mps 691 mmHg 55%
    15:00 +12°C° 0 mm 1 mps 691 mmHg 60%
    16:00 +10°C° 0 mm 1 mps 690 mmHg 65%
    17:00 +9°C° 0 mm 1 mps 690 mmHg 70%
    18:00 +9°C° 0 mm 1 mps 690 mmHg 73%
    19:00 +8°C° 0 mm 1 mps 690 mmHg 76%
    20:00 +8°C° 0 mm 1 mps 690 mmHg 78%
    21:00 +8°C° 0 mm 1 mps 689 mmHg 80%
    22:00 +7°C° 0 mm 1 mps 689 mmHg 81%
    23:00 +6°C° 0 mm 2 mps 689 mmHg 83%
    Show more